Location: River House Observatory
(37.8577°N, 76.3548°W)
Time: 02:16:10
(UTC-05:00)

ISS - Visible Passes

Search period start: 23 November 2017 00:00
Search period end: 03 December 2017 00:00
Orbit: 402 x 407 km, 51.6° (Epoch: 23 November)

Date Brightness Start Highest point End Pass type
(mag) Time Alt. Az. Time Alt. Az. Time Alt. Az.
24 Nov -1.6 18:41:38 10° SSW 18:42:43 18° S 18:42:43 18° S visible
25 Nov -1.9 17:50:25 10° SSE 17:52:25 15° SE 17:53:00 15° ESE visible
25 Nov -0.4 19:25:25 10° WSW 19:25:41 12° WSW 19:25:41 12° WSW visible
26 Nov -3.6 18:33:00 10° SW 18:35:51 65° SW 18:35:51 65° SW visible
27 Nov -3.1 17:40:56 10° SSW 17:44:00 39° SE 17:45:56 19° ENE visible
27 Nov -0.7 19:17:52 10° W 19:18:37 14° WNW 19:18:37 14° WNW visible
28 Nov -2.8 18:25:00 10° WSW 18:28:06 38° NW 18:28:36 35° N visible
29 Nov -3.7 17:32:25 10° SW 17:35:41 75° NW 17:38:30 13° NE visible
29 Nov -0.6 19:10:49 10° NW 19:11:10 11° NW 19:11:10 11° NW visible
30 Nov -1.8 18:17:30 10° WNW 18:20:01 20° NNW 18:21:00 18° N visible
01 Dec -2.4 17:24:30 10° W 17:27:29 31° NNW 17:30:28 10° NNE visible
02 Dec -1.3 18:10:32 10° NW 18:12:02 12° NNW 18:13:09 11° N visible
